Tracking 30986 objects as of 9-Jul-2025
HD Live streaming from Space Station
objects crossing your sky now

CZ-6A DEB

Track CZ-6A DEB now!
10-day predictions


NORAD ID: 54522
Int'l Code: 2022-151KA
Perigee: 814.7 km
Apogee: 976.9 km
Inclination: 98.9 °
Period: 102.7 minutes
Semi major axis: 7266 km
RCS: Unknown
Launch date: November 11, 2022
Source: People's Republic of China (PRC)
Launch site: Taiyaun Space Center, China (TSC)

Note: This is SATELLITE DEBRIS
Your satellite tracking list
Your tracking list is empty




NASA's NSSDC Master Catalog

Two Line Element Set (TLE):
1 54522U 22151KA  25190.52923754  .00000589  00000-0  39695-3 0  9990
2 54522  98.8524 176.0812 0111609 301.7846  57.2487 14.01477008135631
Source of the keplerian elements: AFSPC